Location: Newark
(41.0400°S, 62.7845°W)
Time: 03:59:02
(UTC+00:00)

Explorer 11/Cluster Stage 4 - All Passes

Search period start: 28 November 2021 00:00
Search period end: 08 December 2021 00:00
Orbit: 467 x 1255 km, 28.8° (Epoch: 27 November)

Date Brightness Start Highest point End Pass type
(mag) Time Alt. Az. Time Alt. Az. Time Alt. Az.
28 Nov - 00:32:16 10° NNW 00:33:07 11° N 00:34:00 10° N visible
28 Nov - 22:32:39 10° NNW 22:34:20 13° N 22:36:03 10° NNE daylight
29 Nov - 20:34:36 10° N 20:35:36 11° N 20:36:35 10° NNE daylight
29 Nov - 22:21:30 10° NNW 22:23:04 12° N 22:24:39 10° NNE daylight
30 Nov - 20:22:43 10° NNW 20:24:18 12° N 20:25:51 10° NNE daylight
30 Nov - 22:10:21 10° NNW 22:11:47 12° N 22:13:14 10° NNE daylight
01 Dec - 20:11:00 10° NNW 20:13:02 13° N 20:14:57 10° NNE daylight
01 Dec - 21:59:13 10° NNW 22:00:30 11° N 22:01:47 10° NNE daylight
02 Dec - 18:13:19 10° N 18:14:07 10° NNE 18:14:54 10° NNE daylight
02 Dec - 19:59:21 10° NNW 20:01:45 15° N 20:03:58 10° NE daylight
02 Dec - 21:48:07 10° NNW 21:49:13 11° NNW 21:50:17 10° N daylight
03 Dec - 18:00:37 10° NNW 18:02:47 13° N 18:04:48 10° NE daylight
03 Dec - 19:47:43 10° NW 19:50:27 16° N 19:52:56 10° NE daylight
03 Dec - 21:37:05 10° NNW 21:37:54 11° NNW 21:38:43 10° N daylight
04 Dec - 17:48:27 10° NNW 17:51:27 15° N 17:54:09 10° NE daylight
04 Dec - 19:36:06 10° NW 19:39:08 17° N 19:41:52 10° NE daylight
04 Dec - 21:26:17 10° NNW 21:26:35 10° NNW 21:26:53 10° NNW daylight
05 Dec - 17:36:27 10° NNW 17:40:05 17° N 17:43:18 10° NE daylight
05 Dec - 19:24:30 10° NW 19:27:49 18° N 19:30:45 10° NE daylight
06 Dec - 15:38:28 10° N 15:40:46 12° NNE 15:42:55 10° NE daylight
06 Dec - 17:24:31 10° NW 17:28:43 19° N 17:32:22 10° NE daylight
06 Dec - 19:12:53 10° NW 19:16:28 19° N 19:19:37 10° NE daylight
07 Dec - 15:25:48 10° NNW 15:29:18 14° NNE 15:32:30 10° NE daylight
07 Dec - 17:12:38 10° NW 17:17:19 22° N 17:21:20 10° NE daylight
07 Dec - 19:01:17 10° NW 19:05:07 19° N 19:08:27 10° NE daylight
